Weather in Tsentral'noye

Russia / Primorsky Krai     43°20′27″N   132°41′44″E
temp.,
°C
wind,
m/s
gust,
m/s
humid.,
%
clouds,
%
prec.,
mm/h
press.,
hPa
HPBL,
m
26 february, fri
fri2601:00−13wnw279235 0.0 1027388
04:00−15wnw279045 0.0 1027364
07:00−15nnw128743 0.0 102989
10:00−12nnw266158 0.0 1029533
13:00−8nnw4844100 0.0 10301050
16:00−7nnw5104594 0.0 10281262
19:00−11nnw236894 0.0 103188
22:00−14nne237951 0.0 103374
27 february, sat
sat2701:00−15nne12830 0.0 103437
04:00−16ne12800 0.0 103529
07:00−16ene22720 0.0 103638
10:00−10ese12500 0.0 1035154
13:00−2s23320 0.0 1034661
16:00−3ssw234036 0.0 1032594
19:00−8s22700 0.0 103227
22:00−10sse12850 0.0 103234
28 february, sun
sun2801:00−8se239376 0.1 103078
04:00−6se229688 0.1 102961
07:00−4se1297100 0.1 102940
10:00−1sse2394100 0.1 1028170
13:00+2ssw2484100 0.0 1026559
16:00+2ssw2483100 0.0 1025557
19:00−1s1195100 0.0 102629
22:00−1ese1196100 0.0 102623
1 march, mon
mon101:00−1wnw2299100 0.3 102681
04:00−5n3684100 0.8 1028495
07:00−8n2779100 0.0 1030618
10:00−9n3661100 0.0 1032637
13:00−7n3550100 0.0 1032741
16:00−7nne3552100 0.0 1030749
19:00−9nne2464100 0.0 1031577
22:00−10nne2473100 0.0 1031387
2 march, tue
tue201:00−11nne3560100 0.0 1030436
04:00−12nne3666100 0.3 1028555
07:00−13nne3765100 0.1 1027649
10:00−12nne3861100 0.1 1027803
13:00−10n585281 0.0 10251026
16:00−10n5105041 0.0 10251118
19:00−14nnw310580 0.0 1027862
22:00−16n23660 0.0 1030233